Location: Central Falls
(41.8900°N, 71.3929°W)
Time: 04:38:04
(UTC+00:00)

Tiros 1 - Pass Details

Date: 11 December 2023
Orbit: 625 x 658 km, 48.4° (Epoch: 01 March)

Event Time Altitude Azimuth Distance (km) Brightness Sun altitude
Rises 05:05:29 0° 192° (SSW) 2,940 - -70.3°
Reaches altitude 10° 05:08:32 10° 172° (S) 2,042 - -70.1°
Maximum altitude 05:11:30 17° 132° (SE) 1,655 - -69.9°
Drops below altitude 10° 05:14:28 10° 93° (E) 2,061 - -69.7°
Sets 05:17:33 0° 73° (ENE) 2,982 - -69.4°
